FW7008 Weather Reports


time (UTC)temp
C
wind
direction
speed
KPH
gust
KPH
rain 1hr
cm
rain 24hr
cm
rain mn
cm
humidity
%
barometer
mb
20260509032107 16 243 3.2 9.7 0.00 0.00 0.00 96 1014.6
20260509031604 16 225 0.0 0.0 0.00 0.00 0.00 96 1014.6
20260509031102 16 245 0.0 0.0 0.00 0.00 0.00 96 1014.9
20260509030600 16 230 0.0 0.0 0.00 0.00 0.00 96 1014.6
20260509030056 16 253 8.0 11.3 0.00 0.00 0.00 96 1014.6
20260509025552 16 242 1.6 3.2 0.00 0.00 0.00 95 1014.6
20260509025048 16 235 0.0 0.0 0.00 0.00 0.00 95 1014.2
20260509024544 16 243 0.0 0.0 0.00 0.00 0.00 95 1014.6
20260509024040 16 238 9.7 14.5 0.00 0.00 0.00 95 1014.6
20260509023538 16 262 0.0 0.0 0.00 0.00 0.00 95 1014.6
20260509023035 16 278 4.8 8.0 0.00 0.00 0.00 95 1014.2
20260509022531 16 277 0.0 1.6 0.00 0.00 0.00 95 1014.2
20260509022029 16 225 6.4 11.3 0.00 0.00 0.00 95 1014.2
20260509021526 16 231 8.0 11.3 0.00 0.00 0.00 95 1014.2
20260509021023 16 244 6.4 12.9 0.00 0.00 0.00 95 1014.2
20260509020521 16 269 9.7 11.3 0.00 0.00 0.00 95 1014.2
20260509020018 16 245 14.5 16.1 0.00 0.00 0.00 94 1014.2
20260509015517 16 217 0.0 0.0 0.00 0.00 0.00 94 1014.2
20260509015014 16 228 6.4 9.7 0.00 0.00 0.00 94 1014.2
20260509014510 17 245 9.7 12.9 0.00 0.00 0.00 93 1013.9
20260509014006 17 269 0.0 0.0 0.00 0.00 0.00 92 1014.2
20260509013504 17 232 8.0 12.9 0.00 0.00 0.00 92 1014.2
20260509012959 17 239 14.5 17.7 0.00 0.00 0.00 92 1013.9
20260509012455 17 244 14.5 17.7 0.00 0.00 0.00 92 1014.2
20260509011953 17 243 8.0 9.7 0.00 0.00 0.00 91 1014.2
20260509011450 17 268 17.7 22.5 0.00 0.00 0.00 91 1014.2
20260509010948 17 202 9.7 16.1 0.00 0.00 0.00 90 1014.2
20260509010446 17 155 0.0 1.6 0.00 0.00 0.00 91 1014.2
20260509005942 17 237 16.1 17.7 0.00 0.00 0.00 91 1013.9
20260509005440 17 231 11.3 17.7 0.00 0.00 0.00 91 1013.9
20260509004940 17 279 1.6 4.8 0.00 0.00 0.00 90 1014.2
20260509004437 18 204 8.0 12.9 0.00 0.00 0.00 89 1014.2
20260509003935 18 233 12.9 17.7 0.00 0.00 0.00 87 1014.2
20260509003433 18 221 8.0 11.3 0.00 0.00 0.00 87 1014.6
20260509002929 18 302 9.7 12.9 0.00 0.00 0.00 87 1014.2
20260509002427 19 153 12.9 14.5 0.00 0.00 0.00 85 1014.2
20260509001924 18 230 9.7 12.9 0.00 0.00 0.00 87 1014.2
20260509001420 18 244 11.3 14.5 0.00 0.00 0.00 87 1014.2
20260509000917 18 237 17.7 20.9 0.00 0.00 0.00 85 1014.2
20260509000417 19 222 14.5 17.7 0.00 0.00 0.00 84 1014.2
20260508235911 20 174 11.3 16.1 0.00 0.00 0.00 82 1014.2
20260508235409 19 252 12.9 16.1 0.00 0.00 0.00 83 1014.2
20260508234905 19 239 17.7 22.5 0.00 0.00 0.00 84 1014.2
20260508234402 19 230 8.0 12.9 0.00 0.00 0.00 83 1014.6
20260508233900 20 248 14.5 16.1 0.00 0.00 0.00 82 1014.2
20260508233400 19 250 12.9 14.5 0.00 0.00 0.00 82 1014.2
20260508232856 20 248 14.5 17.7 0.00 0.00 0.00 82 1014.2
20260508232352 20 256 12.9 16.1 0.00 0.00 0.00 82 1014.2
20260508231851 19 212 14.5 20.9 0.00 0.00 0.00 82 1014.6
20260508231347 19 211 19.3 24.1 0.00 0.00 0.00 82 1014.6
20260508230843 19 224 3.2 11.3 0.00 0.00 0.00 83 1014.9
20260508230340 20 255 16.1 20.9 0.00 0.00 0.00 81 1014.6
20260508225838 20 203 6.4 14.5 0.00 0.00 0.00 82 1014.6
20260508225334 20 227 16.1 17.7 0.00 0.00 0.00 81 1014.9
20260508224832 20 215 14.5 16.1 0.00 0.00 0.00 80 1014.9
20260508224329 20 255 11.3 14.5 0.00 0.00 0.00 81 1014.6
20260508223827 20 210 12.9 16.1 0.00 0.00 0.00 80 1014.9
20260508223324 20 247 0.0 1.6 0.00 0.00 0.00 82 1014.9
20260508222821 20 241 14.5 16.1 0.00 0.00 0.00 81 1015.2
20260508222318 21 281 11.3 12.9 0.00 0.00 0.00 78 1015.2
20260508221815 20 278 12.9 16.1 0.00 0.00 0.00 80 1015.2
20260508221310 20 237 14.5 17.7 0.00 0.00 0.00 78 1015.2
20260508220807 20 241 1.6 4.8 0.00 0.00 0.00 80 1015.2
20260508220304 20 235 9.7 12.9 0.00 0.00 0.00 80 1015.6
20260508215800 20 230 11.3 12.9 0.00 0.00 0.00 79 1015.2
20260508215257 20 209 8.0 11.3 0.00 0.00 0.00 81 1015.2
20260508214754 20 234 16.1 17.7 0.00 0.00 0.00 81 1015.6
20260508214251 21 199 8.0 9.7 0.00 0.00 0.00 80 1015.6
20260508213747 21 250 17.7 20.9 0.00 0.00 0.00 79 1015.6
20260508213244 20 254 9.7 11.3 0.00 0.00 0.00 80 1015.6
20260508212741 20 248 16.1 17.7 0.00 0.00 0.00 79 1015.6
20260508212237 21 235 3.2 4.8 0.00 0.00 0.00 78 1015.6
20260508211733 20 250 8.0 11.3 0.00 0.00 0.00 79 1015.9
20260508211229 21 246 12.9 14.5 0.00 0.00 0.00 78 1015.6
20260508210727 21 187 8.0 9.7 0.00 0.00 0.00 78 1015.9
20260508210223 20 247 12.9 14.5 0.00 0.00 0.00 80 1015.6
20260508205720 21 285 14.5 16.1 0.00 0.00 0.00 77 1015.9
20260508205217 20 250 12.9 16.1 0.00 0.00 0.00 77 1015.9
20260508204713 20 279 12.9 16.1 0.00 0.00 0.00 78 1015.9
20260508204209 20 287 11.3 14.5 0.00 0.00 0.00 80 1015.9
20260508203705 21 262 16.1 17.7 0.00 0.00 0.00 78 1016.2
20260508203202 21 219 11.3 16.1 0.00 0.00 0.00 77 1015.9
20260508202658 20 263 11.3 12.9 0.00 0.00 0.00 79 1015.9
20260508202155 20 258 8.0 9.7 0.00 0.00 0.00 80 1015.9
20260508201652 20 259 9.7 16.1 0.00 0.00 0.00 80 1016.2
20260508201149 21 262 0.0 0.0 0.00 0.00 0.00 78 1015.9
20260508200646 20 226 11.3 12.9 0.00 0.00 0.00 80 1015.9
20260508200142 21 262 11.3 14.5 0.00 0.00 0.00 79 1015.9
20260508195638 20 325 1.6 3.2 0.00 0.00 0.00 80 1016.2
20260508195134 21 225 8.0 11.3 0.00 0.00 0.00 77 1016.6
20260508194631 21 260 16.1 17.7 0.00 0.00 0.00 76 1016.2
20260508194128 21 241 1.6 1.6 0.00 0.00 0.00 80 1016.2
20260508193625 21 222 0.0 0.0 0.00 0.00 0.00 77 1016.2
20260508193122 22 106 0.0 0.0 0.00 0.00 0.00 74 1016.6
20260508192618 21 22 0.0 0.0 0.00 0.00 0.00 76 1016.2
20260508192115 21 126 0.0 0.0 0.00 0.00 0.00 77 1016.6
20260508191612 21 167 0.0 0.0 0.00 0.00 0.00 78 1016.6
20260508191109 21 198 0.0 0.0 0.00 0.00 0.00 77 1016.6
20260508190606 21 162 0.0 0.0 0.00 0.00 0.00 76 1016.6
20260508190103 21 127 0.0 0.0 0.00 0.00 0.00 77 1016.9
20260508185600 20 40 0.0 0.0 0.00 0.00 0.00 79 1016.9
20260508185057 20 49 0.0 0.0 0.00 0.00 0.00 80 1016.9
20260508184554 20 53 0.0 0.0 0.00 0.00 0.00 81 1016.6
20260508184051 20 9 0.0 0.0 0.00 0.00 0.00 81 1016.9
20260508183548 20 33 0.0 0.0 0.00 0.00 0.00 82 1016.9
20260508183044 20 34 0.0 0.0 0.00 0.00 0.00 82 1016.9
20260508182540 19 74 0.0 0.0 0.00 0.00 0.00 83 1017.3
20260508182037 18 34 0.0 0.0 0.00 0.00 0.00 85 1016.9
20260508181532 18 150 0.0 0.0 0.00 0.00 0.00 86 1017.3
20260508181031 18 132 0.0 0.0 0.00 0.00 0.00 86 1017.3
20260508180527 18 177 0.0 0.0 0.00 0.00 0.00 86 1017.3
20260508180023 18 152 0.0 0.0 0.00 0.00 0.00 85 1016.9
20260508175520 18 72 0.0 0.0 0.00 0.00 0.00 86 1017.3
20260508175017 18 62 0.0 0.0 0.00 0.00 0.00 88 1017.3
20260508174514 18 97 0.0 0.0 0.00 0.00 0.00 87 1017.3
20260508174011 17 86 0.0 0.0 0.00 0.00 0.00 88 1017.3
20260508173508 17 73 0.0 0.0 0.00 0.00 0.00 89 1017.6
20260508173004 17 145 0.0 0.0 0.00 0.00 0.00 89 1017.3
20260508172501 17 133 0.0 0.0 0.00 0.00 0.00 89 1017.3
20260508171958 17 100 0.0 0.0 0.00 0.00 0.00 89 1017.3
20260508171455 17 114 0.0 0.0 0.00 0.00 0.00 89 1017.6
20260508170951 17 76 0.0 1.6 0.00 0.00 0.00 90 1017.6
20260508170448 17 62 0.0 0.0 0.00 0.00 0.00 89 1017.3
20260508165945 17 87 0.0 0.0 0.00 0.00 0.00 90 1017.3
20260508165444 17 65 3.2 4.8 0.00 0.00 0.00 90 1017.3
20260508164939 17 98 0.0 0.0 0.00 0.00 0.00 91 1017.6
20260508164436 17 66 0.0 0.0 0.00 0.00 0.00 91 1017.3
20260508163933 17 59 0.0 0.0 0.00 0.00 0.00 90 1017.3
20260508163431 17 82 0.0 0.0 0.00 0.00 0.00 90 1017.3
20260508162926 17 131 0.0 0.0 0.00 0.00 0.00 91 1017.3
20260508162424 17 90 0.0 0.0 0.00 0.00 0.00 91 1017.3
20260508161921 17 62 0.0 0.0 0.00 0.00 0.00 92 1017.3
20260508161418 17 101 0.0 0.0 0.00 0.00 0.00 92 1017.3
20260508160915 16 101 0.0 0.0 0.00 0.00 0.00 92 1017.3
20260508160414 16 151 0.0 0.0 0.00 0.00 0.00 92 1017.3
20260508155909 16 144 0.0 0.0 0.00 0.00 0.00 92 1017.3
20260508155407 16 93 0.0 0.0 0.00 0.00 0.00 92 1016.9
20260508154904 16 88 0.0 0.0 0.00 0.00 0.00 93 1017.3
20260508154401 16 128 4.8 4.8 0.00 0.00 0.00 93 1016.9
20260508153858 16 94 0.0 0.0 0.00 0.00 0.00 93 1017.3
20260508153355 16 88 0.0 0.0 0.00 0.00 0.00 94 1016.9
20260508152851 16 48 0.0 0.0 0.00 0.00 0.00 94 1017.3
20260508152347 16 87 0.0 0.0 0.00 0.00 0.00 93 1016.9
20260508151844 16 72 0.0 0.0 0.00 0.00 0.00 93 1017.3
20260508151341 16 57 0.0 0.0 0.00 0.00 0.00 94 1016.9
20260508150837 16 57 0.0 0.0 0.00 0.00 0.00 94 1017.3
20260508150334 16 79 0.0 0.0 0.00 0.00 0.00 94 1016.9
20260508145830 16 93 0.0 0.0 0.00 0.00 0.00 94 1016.9
20260508145327 16 83 0.0 0.0 0.00 0.00 0.00 95 1017.3
20260508144823 16 64 0.0 0.0 0.00 0.00 0.00 95 1017.3
20260508144321 16 64 0.0 0.0 0.00 0.00 0.00 95 1017.6
20260508143819 16 62 0.0 0.0 0.00 0.00 0.00 95 1017.3
20260508143315 16 58 0.0 0.0 0.00 0.00 0.00 95 1017.3
20260508142812 16 61 0.0 0.0 0.00 0.00 0.00 96 1016.9
20260508142309 16 97 0.0 0.0 0.00 0.00 0.00 96 1017.3
20260508141806 16 68 0.0 0.0 0.00 0.00 0.00 96 1017.3
20260508141303 16 70 0.0 0.0 0.00 0.00 0.00 96 1017.3
20260508140800 16 75 0.0 0.0 0.00 0.00 0.00 96 1017.3
20260508140257 16 60 0.0 0.0 0.00 0.00 0.00 96 1016.9
20260508135752 16 38 0.0 0.0 0.00 0.00 0.00 96 1016.9
20260508135249 16 51 0.0 0.0 0.00 0.00 0.00 97 1016.9
20260508134745 15 100 0.0 0.0 0.00 0.00 0.00 97 1016.9
20260508134242 15 98 0.0 0.0 0.00 0.00 0.00 97 1016.9
20260508133739 15 66 0.0 0.0 0.00 0.00 0.00 98 1016.9
20260508133236 15 70 0.0 0.0 0.00 0.00 0.00 98 1016.9
20260508132734 15 76 0.0 0.0 0.00 0.00 0.00 99 1017.3
20260508132231 15 75 0.0 0.0 0.00 0.00 0.00 99 1016.9
20260508131727 15 61 0.0 0.0 0.00 0.00 0.00 99 1016.6
20260508131224 15 82 0.0 0.0 0.00 0.00 0.00 99 1016.6
20260508130720 15 77 0.0 0.0 0.00 0.00 0.00 99 1016.6
20260508130217 15 65 4.8 8.0 0.00 0.00 0.00 99 1016.6
20260508125713 15 93 0.0 0.0 0.00 0.00 0.00 99 1016.6
20260508125209 15 65 0.0 0.0 0.00 0.00 0.00 99 1016.6
20260508124708 15 52 0.0 0.0 0.00 0.00 0.00 99 1016.6
20260508124204 15 74 0.0 0.0 0.00 0.00 0.00 99 1016.6
20260508123703 15 83 0.0 0.0 0.00 0.00 0.00 99 1016.2
20260508123201 15 77 6.4 8.0 0.00 0.00 0.00 99 1016.6
20260508122656 16 63 0.0 0.0 0.00 0.00 0.00 99 1016.6
20260508122153 16 72 0.0 0.0 0.00 0.00 0.00 99 1016.6
20260508121651 16 76 0.0 0.0 0.00 0.00 0.00 99 1016.6
20260508121149 16 61 0.0 3.2 0.00 0.00 0.00 99 1016.2
20260508120646 16 81 0.0 0.0 0.00 0.00 0.00 99 1016.6
20260508120144 16 68 0.0 0.0 0.00 0.00 0.00 98 1016.6
20260508115636 16 64 0.0 0.0 0.00 0.00 0.00 98 1016.2
20260508115132 16 52 0.0 0.0 0.00 0.00 0.00 98 1016.2
20260508114630 16 55 0.0 0.0 0.00 0.00 0.00 98 1016.2
20260508114126 16 74 0.0 0.0 0.00 0.00 0.00 98 1016.2
20260508113623 16 88 0.0 0.0 0.00 0.00 0.00 98 1016.2
20260508113122 16 90 0.0 0.0 0.00 0.00 0.00 98 1016.2
20260508112617 16 77 0.0 0.0 0.00 0.00 0.00 97 1016.2
20260508112114 16 64 0.0 0.0 0.00 0.00 0.00 97 1016.2
20260508111611 16 88 0.0 0.0 0.00 0.00 0.00 97 1016.2
20260508111108 16 98 0.0 0.0 0.00 0.00 0.00 97 1016.2
20260508110606 16 55 0.0 0.0 0.00 0.00 0.00 97 1015.9
20260508105557 16 95 1.6 3.2 0.00 0.00 0.00 96 1016.2
20260508105054 16 64 0.0 0.0 0.00 0.00 0.00 96 1016.2
20260508104552 16 86 0.0 0.0 0.00 0.00 0.00 95 1016.2
20260508104048 16 93 0.0 0.0 0.00 0.00 0.00 95 1015.9
20260508103546 16 74 0.0 1.6 0.00 0.00 0.00 95 1015.9
20260508103043 16 90 0.0 0.0 0.00 0.00 0.00 94 1016.2
20260508102540 16 68 0.0 0.0 0.00 0.00 0.00 94 1015.9
20260508102038 16 89 0.0 0.0 0.00 0.00 0.00 94 1016.2
20260508101535 16 68 0.0 0.0 0.00 0.00 0.00 94 1016.2
20260508101032 16 77 0.0 0.0 0.00 0.00 0.00 94 1016.2
20260508100530 15 57 0.0 0.0 0.00 0.00 0.00 94 1016.2
20260508100027 15 63 0.0 0.0 0.00 0.00 0.00 94 1016.2
20260508095524 15 71 0.0 0.0 0.00 0.00 0.00 94 1016.2
20260508095021 15 80 0.0 0.0 0.00 0.00 0.00 94 1016.6
20260508094518 15 91 0.0 0.0 0.00 0.00 0.00 94 1016.2
20260508094015 15 91 0.0 0.0 0.00 0.00 0.00 94 1016.6
20260508093512 16 131 0.0 0.0 0.00 0.00 0.00 94 1016.2
20260508093009 16 171 0.0 0.0 0.00 0.00 0.00 94 1016.2
20260508092506 16 97 0.0 0.0 0.00 0.00 0.00 94 1016.2
20260508092006 16 70 0.0 0.0 0.00 0.00 0.00 94 1016.6
20260508091502 16 137 0.0 0.0 0.00 0.00 0.00 94 1016.6
20260508090959 16 67 0.0 0.0 0.00 0.00 0.00 94 1016.6
20260508090457 16 58 0.0 0.0 0.00 0.00 0.00 94 1016.6
20260508085953 16 78 0.0 0.0 0.00 0.00 0.00 95 1016.6
20260508085450 16 81 0.0 0.0 0.00 0.00 0.00 95 1016.6
20260508084947 16 70 0.0 0.0 0.00 0.00 0.00 95 1016.6
20260508084443 16 94 0.0 0.0 0.00 0.00 0.00 95 1016.6
20260508083942 16 72 0.0 0.0 0.00 0.00 0.00 95 1016.6
20260508083438 16 74 0.0 0.0 0.00 0.00 0.00 95 1016.6
20260508082933 16 57 0.0 0.0 0.00 0.00 0.00 95 1016.6
20260508082430 16 45 0.0 0.0 0.00 0.00 0.00 95 1016.6
20260508081928 16 70 0.0 0.0 0.00 0.00 0.00 95 1016.6
20260508081424 16 57 0.0 0.0 0.00 0.00 0.00 96 1016.6
20260508080920 16 40 0.0 0.0 0.00 0.00 0.00 96 1016.9
20260508080419 16 17 0.0 0.0 0.00 0.00 0.00 96 1016.9
20260508075915 16 0 0.0 0.0 0.00 0.00 0.00 96 1016.9
20260508075413 15 10 0.0 0.0 0.00 0.00 0.00 96 1016.9
20260508074910 15 358 0.0 0.0 0.00 0.00 0.00 96 1016.9
20260508074407 15 7 0.0 0.0 0.00 0.00 0.00 96 1016.9
20260508073904 15 7 0.0 0.0 0.00 0.00 0.00 96 1016.9
20260508073402 16 0 0.0 0.0 0.00 0.00 0.00 96 1016.9
20260508072858 16 4 0.0 0.0 0.00 0.00 0.00 96 1016.9
20260508072354 16 9 0.0 0.0 0.00 0.00 0.00 95 1016.9
20260508071852 16 3 0.0 0.0 0.00 0.00 0.00 95 1016.6
20260508071350 16 18 0.0 0.0 0.00 0.00 0.00 95 1016.9
20260508070848 16 32 0.0 0.0 0.00 0.00 0.00 95 1016.9
20260508070345 15 37 0.0 0.0 0.00 0.00 0.00 95 1016.6
20260508065843 16 43 0.0 0.0 0.00 0.00 0.00 95 1016.9
20260508065341 16 49 0.0 0.0 0.00 0.00 0.00 95 1016.9
20260508064839 16 41 0.0 1.6 0.00 0.00 0.00 95 1016.6
20260508064336 16 44 0.0 0.0 0.00 0.00 0.00 95 1016.9
20260508063834 16 41 0.0 0.0 0.00 0.00 0.00 95 1016.6
20260508063331 16 35 0.0 0.0 0.00 0.00 0.00 95 1016.9
20260508062828 16 34 0.0 0.0 0.00 0.00 0.00 95 1016.6
20260508062326 16 40 0.0 0.0 0.00 0.00 0.00 95 1016.6
20260508061822 16 41 0.0 0.0 0.00 0.00 0.00 95 1016.6
20260508061320 16 24 0.0 0.0 0.00 0.00 0.00 95 1016.6
20260508060816 16 51 0.0 0.0 0.00 0.00 0.00 95 1016.6
20260508060314 16 56 0.0 0.0 0.00 0.00 0.00 95 1016.6
20260508055814 16 51 0.0 0.0 0.00 0.00 0.00 95 1016.6
20260508055313 15 14 0.0 0.0 0.00 0.00 0.00 95 1016.6
20260508054809 15 344 0.0 0.0 0.00 0.00 0.00 95 1016.9
20260508054306 15 337 0.0 0.0 0.00 0.00 0.00 95 1016.6
20260508053803 15 333 0.0 0.0 0.00 0.00 0.00 95 1016.6
20260508053300 16 327 0.0 0.0 0.00 0.00 0.00 95 1016.6
20260508052758 16 325 0.0 0.0 0.00 0.00 0.00 95 1016.6
20260508052255 16 318 0.0 0.0 0.00 0.00 0.00 95 1016.6
20260508051751 16 312 0.0 0.0 0.00 0.00 0.00 95 1016.6
20260508051246 16 304 0.0 0.0 0.00 0.00 0.00 95 1016.6
20260508050743 16 292 0.0 0.0 0.00 0.00 0.00 95 1016.6
20260508050240 16 257 0.0 0.0 0.00 0.00 0.00 94 1016.6
20260508045735 16 254 0.0 0.0 0.00 0.00 0.00 94 1016.6
20260508045234 16 276 0.0 0.0 0.00 0.00 0.00 94 1016.6
20260508044731 16 278 0.0 0.0 0.00 0.00 0.00 93 1016.6
20260508044228 16 262 0.0 0.0 0.00 0.00 0.00 93 1016.6
20260508043723 16 286 0.0 0.0 0.00 0.00 0.00 93 1016.2
20260508043221 16 238 0.0 0.0 0.00 0.00 0.00 93 1016.2
20260508042718 16 243 0.0 0.0 0.00 0.00 0.00 93 1016.2
20260508042215 16 241 0.0 0.0 0.00 0.00 0.00 93 1016.2
20260508041711 16 208 0.0 0.0 0.00 0.00 0.00 93 1016.2
20260508041209 16 267 0.0 0.0 0.00 0.00 0.00 93 1015.9
20260508040705 16 228 0.0 0.0 0.00 0.00 0.00 93 1015.9
20260508040202 16 271 0.0 0.0 0.00 0.00 0.00 93 1015.9
20260508035659 16 225 0.0 0.0 0.00 0.00 0.00 93 1015.6
20260508035157 16 273 0.0 0.0 0.00 0.00 0.00 93 1015.9
20260508034653 16 237 0.0 0.0 0.00 0.00 0.00 93 1015.9
20260508034150 16 240 0.0 0.0 0.00 0.00 0.00 92 1015.6
20260508033648 16 237 0.0 0.0 0.00 0.00 0.00 92 1015.6
20260508033146 16 269 0.0 0.0 0.00 0.00 0.00 91 1015.6
20260508032643 16 245 0.0 0.0 0.00 0.00 0.00 91 1015.9